Flag for Congo Dem.Rep. Weather past 2 weeks in Kinshasa, Congo Dem.Rep.

Now
77 °F

Broken clouds.


Feels Like: 79 °F
Forecast: 72 / 90 °F
Wind: 8 mph from West

Location: Brazzaville / Maya-Maya

Current Time: Sep 21, 2014 at 10:12:16 AM

Latest Report: Sep 21, 2014 at 9:00 AM


Visibility: 4 mi

Pressure: 30.04 "Hg

Humidity: 69%

Dew point: 66 °F

Location of KinshasaLocation

Historic Weather in Kinshasa — Graph

°F

Kinshasa temperature yesterday

Maximum temperature yesterday: 90 °F (at 6:00 PM)
Minimum temperature yesterday: 73 °F (at 4:00 AM)
Average temperature yesterday: 81 °F

Past Weeks' High & Low Weather Summary

 TemperatureHumidityPressure
High93 °F (Sep 13, 2:00 PM)94% (Sep 17, 4:00 AM)30.07 "Hg (Sep 17, 4:00 AM)
Low68 °F (Sep 17, 4:00 AM)39% (Sep 19, 4:00 PM)29.80 "Hg (Sep 13, 3:00 PM)
Average79 °F69%29.95 "Hg
* Reported Sep 6 8:00 AM — Sep 21 8:00 AM, Kinshasa, Weather by CustomWeather, © 2014

Note: Actual official high and low records may vary slightly from our data, if they occured in-between our weather recording intervals... More about our weather records

Advertising

Kinshasa weather history for previous 24 hours

 ConditionsComfort  
Time TempWeatherWind HumidityBarometerVisibility
8:00 AM
Sep 21
75 °FFog.8 mph78%30.04 "Hg2 mi
7:00 AM75 °FFog.10 mph74%30.01 "Hg2 mi
6:00 AM75 °FFog.9 mph78%29.98 "Hg2 mi
5:58 AM75 °FFog.9 mph78%29.98 "Hg2 mi
5:00 AM75 °FPassing clouds.6 mph78%29.95 "Hg4 mi
4:00 AM75 °FClear.7 mph78%29.95 "Hg4 mi
2:00 AM75 °FClear.8 mph83%29.92 "Hg4 mi
1:00 AM77 °FClear.6 mph79%29.92 "Hg4 mi
12:00 AM79 °FClear.7 mph70%29.92 "Hg5 mi
11:00 PM
Sep 20
81 °FClear.7 mph66%29.95 "Hg4 mi
10:00 PM82 °FClear.6 mph58%29.92 "Hg4 mi
9:00 PM84 °FClear.5 mph58%29.92 "Hg4 mi
8:00 PM86 °FClear.6 mph59%29.89 "Hg4 mi
7:00 PM86 °FClear.3 mph59%29.86 "Hg4 mi
6:00 PM90 °FClear.6 mph52%29.83 "Hg4 mi
2:00 PM88 °FPassing clouds.7 mph52%29.86 "Hg4 mi
1:00 PM88 °FPassing clouds.6 mph52%29.92 "Hg4 mi
12:00 PM84 °FScattered clouds.5 mph58%29.95 "Hg4 mi
11:00 AM77 °FScattered clouds.6 mph69%30.01 "Hg4 mi
10:00 AM79 °FBroken clouds.7 mph65%30.01 "Hg4 mi
Weather by CustomWeather, © 2014

See weather overviewHow to use our weather pages